Year,Month,Day,Hour,Minute,Value (Times are PST for temperature in C)
2018,10,19,00,00,7.70
2018,10,19,00,01,7.60
2018,10,19,00,02,7.60
2018,10,19,00,03,7.60
2018,10,19,00,04,7.60
2018,10,19,00,05,7.60
2018,10,19,00,06,7.60
2018,10,19,00,07,7.60
2018,10,19,00,08,7.60
2018,10,19,00,09,7.60
2018,10,19,00,10,7.60
2018,10,19,00,11,7.50
2018,10,19,00,12,7.50
2018,10,19,00,13,7.50
2018,10,19,00,14,7.50
2018,10,19,00,15,7.40
2018,10,19,00,16,7.40
2018,10,19,00,17,7.40
2018,10,19,00,18,7.30
2018,10,19,00,19,7.30
2018,10,19,00,20,7.30
2018,10,19,00,21,7.20
2018,10,19,00,22,7.20
2018,10,19,00,23,7.20
2018,10,19,00,24,7.20
2018,10,19,00,25,7.20
2018,10,19,00,26,7.20
2018,10,19,00,27,7.20
2018,10,19,00,28,7.10
2018,10,19,00,29,7.10
2018,10,19,00,30,7.10
2018,10,19,00,31,7.10
2018,10,19,00,32,7.10
2018,10,19,00,33,7.10
2018,10,19,00,34,7.10
2018,10,19,00,35,7.10
2018,10,19,00,36,7.10
2018,10,19,00,37,7.10
2018,10,19,00,38,7.10
2018,10,19,00,39,7.20
2018,10,19,00,40,7.20
2018,10,19,00,41,7.20
2018,10,19,00,42,7.20
2018,10,19,00,43,7.20
2018,10,19,00,44,7.20
2018,10,19,00,45,7.20
2018,10,19,00,46,7.10
2018,10,19,00,47,7.10
2018,10,19,00,48,7.10
2018,10,19,00,49,7.10
2018,10,19,00,50,7.10
2018,10,19,00,51,7.10
2018,10,19,00,52,7.10
2018,10,19,00,53,7.10
2018,10,19,00,54,7.10
2018,10,19,00,55,7.10
2018,10,19,00,56,7.10
2018,10,19,00,57,7.20
2018,10,19,00,58,7.20
2018,10,19,00,59,7.20
2018,10,19,01,00,7.20
2018,10,19,01,01,7.20
2018,10,19,01,02,7.10
2018,10,19,01,03,7.10
2018,10,19,01,04,7.10
2018,10,19,01,05,7.10
2018,10,19,01,06,7.10
2018,10,19,01,07,7.10
2018,10,19,01,08,7.10
2018,10,19,01,09,7.10
2018,10,19,01,10,7.10
2018,10,19,01,11,7.10
2018,10,19,01,12,7.10
2018,10,19,01,13,7.10
2018,10,19,01,14,7.00
2018,10,19,01,15,7.00
2018,10,19,01,16,7.00
2018,10,19,01,17,7.00
2018,10,19,01,18,6.90
2018,10,19,01,19,6.90
2018,10,19,01,20,6.90
2018,10,19,01,21,6.80
2018,10,19,01,22,6.80
2018,10,19,01,23,6.80
2018,10,19,01,24,6.80
2018,10,19,01,25,6.80
2018,10,19,01,26,6.80
2018,10,19,01,27,6.80
2018,10,19,01,28,6.80
2018,10,19,01,29,6.80
2018,10,19,01,30,6.70
2018,10,19,01,31,6.80
2018,10,19,01,32,6.80
2018,10,19,01,33,6.80
2018,10,19,01,34,6.80
2018,10,19,01,35,6.80
2018,10,19,01,36,6.80
2018,10,19,01,37,6.80
2018,10,19,01,38,6.80
2018,10,19,01,39,6.80
2018,10,19,01,40,6.70
2018,10,19,01,41,6.70
2018,10,19,01,42,6.70
2018,10,19,01,43,6.70
2018,10,19,01,44,6.70
2018,10,19,01,45,6.70
2018,10,19,01,46,6.70
2018,10,19,01,47,6.70
2018,10,19,01,48,6.60
2018,10,19,01,49,6.60
2018,10,19,01,50,6.60
2018,10,19,01,51,6.60
2018,10,19,01,52,6.60
2018,10,19,01,53,6.60
2018,10,19,01,54,6.60
2018,10,19,01,55,6.60
2018,10,19,01,56,6.50
2018,10,19,01,57,6.50
2018,10,19,01,58,6.50
2018,10,19,01,59,6.50
2018,10,19,02,00,6.50
2018,10,19,02,01,6.50
2018,10,19,02,02,6.50
2018,10,19,02,03,6.50
2018,10,19,02,04,6.50
2018,10,19,02,05,6.50
2018,10,19,02,06,6.50
2018,10,19,02,07,6.50
2018,10,19,02,08,6.50
2018,10,19,02,09,6.50
2018,10,19,02,10,6.50
2018,10,19,02,11,6.50
2018,10,19,02,12,6.50
2018,10,19,02,13,6.50
2018,10,19,02,14,6.50
2018,10,19,02,15,6.50
2018,10,19,02,16,6.50
2018,10,19,02,17,6.50
2018,10,19,02,18,6.50
2018,10,19,02,19,6.50
2018,10,19,02,20,6.50
2018,10,19,02,21,6.50
2018,10,19,02,22,6.60
2018,10,19,02,23,6.60
2018,10,19,02,24,6.60
2018,10,19,02,25,6.60
2018,10,19,02,26,6.60
2018,10,19,02,27,6.60
2018,10,19,02,28,6.70
2018,10,19,02,29,6.60
2018,10,19,02,30,6.60
2018,10,19,02,31,6.60
2018,10,19,02,32,6.60
2018,10,19,02,33,6.60
2018,10,19,02,34,6.60
2018,10,19,02,35,6.50
2018,10,19,02,36,6.50
2018,10,19,02,37,6.50
2018,10,19,02,38,6.50
2018,10,19,02,39,6.40
2018,10,19,02,40,6.40
2018,10,19,02,41,6.40
2018,10,19,02,42,6.30
2018,10,19,02,43,6.30
2018,10,19,02,44,6.30
2018,10,19,02,45,6.30
2018,10,19,02,46,6.30
2018,10,19,02,47,6.30
2018,10,19,02,48,6.20
2018,10,19,02,49,6.20
2018,10,19,02,50,6.20
2018,10,19,02,51,6.20
2018,10,19,02,52,6.20
2018,10,19,02,53,6.20
2018,10,19,02,54,6.20
2018,10,19,02,55,6.20
2018,10,19,02,56,6.20
2018,10,19,02,57,6.20
2018,10,19,02,58,6.20
2018,10,19,02,59,6.20
2018,10,19,03,00,6.20
2018,10,19,03,01,6.20
2018,10,19,03,02,6.20
2018,10,19,03,03,6.20
2018,10,19,03,04,6.20
2018,10,19,03,05,6.20
2018,10,19,03,06,6.20
2018,10,19,03,07,6.20
2018,10,19,03,08,6.20
2018,10,19,03,09,6.20
2018,10,19,03,10,6.20
2018,10,19,03,11,6.20
2018,10,19,03,12,6.20
2018,10,19,03,13,6.20
2018,10,19,03,14,6.20
2018,10,19,03,15,6.20
2018,10,19,03,16,6.20
2018,10,19,03,17,6.20
2018,10,19,03,18,6.20
2018,10,19,03,19,6.30
2018,10,19,03,20,6.30
2018,10,19,03,21,6.30
2018,10,19,03,22,6.30
2018,10,19,03,23,6.30
2018,10,19,03,24,6.30
2018,10,19,03,25,6.30
2018,10,19,03,26,6.30
2018,10,19,03,27,6.30
2018,10,19,03,28,6.30
2018,10,19,03,29,6.20
2018,10,19,03,30,6.20
2018,10,19,03,31,6.20
2018,10,19,03,32,6.20
2018,10,19,03,33,6.20
2018,10,19,03,34,6.20
2018,10,19,03,35,6.20
2018,10,19,03,36,6.20
2018,10,19,03,37,6.20
2018,10,19,03,38,6.30
2018,10,19,03,39,6.30
2018,10,19,03,40,6.30
2018,10,19,03,41,6.30
2018,10,19,03,42,6.30
2018,10,19,03,43,6.30
2018,10,19,03,44,6.30
2018,10,19,03,45,6.30
2018,10,19,03,46,6.30
2018,10,19,03,47,6.30
2018,10,19,03,48,6.30
2018,10,19,03,49,6.30
2018,10,19,03,50,6.30
2018,10,19,03,51,6.30
2018,10,19,03,52,6.30
2018,10,19,03,53,6.20
2018,10,19,03,54,6.30
2018,10,19,03,55,6.30
2018,10,19,03,56,6.30
2018,10,19,03,57,6.30
2018,10,19,03,58,6.30
2018,10,19,03,59,6.30
2018,10,19,04,00,6.30
2018,10,19,04,01,6.30
2018,10,19,04,02,6.30
2018,10,19,04,03,6.20
2018,10,19,04,04,6.20
2018,10,19,04,05,6.20
2018,10,19,04,06,6.10
2018,10,19,04,07,6.10
2018,10,19,04,08,6.10
2018,10,19,04,09,6.00
2018,10,19,04,10,6.00
2018,10,19,04,11,6.00
2018,10,19,04,12,6.00
2018,10,19,04,13,6.00
2018,10,19,04,14,6.10
2018,10,19,04,15,6.10
2018,10,19,04,16,6.10
2018,10,19,04,17,6.10
2018,10,19,04,18,6.10
2018,10,19,04,19,6.10
2018,10,19,04,20,6.00
2018,10,19,04,21,6.00
2018,10,19,04,22,6.00
2018,10,19,04,23,6.00
2018,10,19,04,24,6.00
2018,10,19,04,25,6.00
2018,10,19,04,26,6.00
2018,10,19,04,27,6.00
2018,10,19,04,28,6.00
2018,10,19,04,29,6.00
2018,10,19,04,30,6.00
2018,10,19,04,31,6.00
2018,10,19,04,32,6.00
2018,10,19,04,33,6.00
2018,10,19,04,34,6.10
2018,10,19,04,35,6.10
2018,10,19,04,36,6.10
2018,10,19,04,37,6.10
2018,10,19,04,38,6.20
2018,10,19,04,39,6.20
2018,10,19,04,40,6.20
2018,10,19,04,41,6.20
2018,10,19,04,42,6.20
2018,10,19,04,43,6.20
2018,10,19,04,44,6.20
2018,10,19,04,45,6.20
2018,10,19,04,46,6.20
2018,10,19,04,47,6.20
2018,10,19,04,48,6.20
2018,10,19,04,49,6.20
2018,10,19,04,50,6.20
2018,10,19,04,51,6.20
2018,10,19,04,52,6.20
2018,10,19,04,53,6.20
2018,10,19,04,54,6.10
2018,10,19,04,55,6.10
2018,10,19,04,56,6.10
2018,10,19,04,57,6.10
2018,10,19,04,58,6.10
2018,10,19,04,59,6.10
2018,10,19,05,00,6.00
2018,10,19,05,01,6.00
2018,10,19,05,02,6.00
2018,10,19,05,03,5.90
2018,10,19,05,04,5.90
2018,10,19,05,05,5.90
2018,10,19,05,06,5.90
2018,10,19,05,07,5.90
2018,10,19,05,08,5.90
2018,10,19,05,09,5.90
2018,10,19,05,10,5.90
2018,10,19,05,11,5.90
2018,10,19,05,12,5.90
2018,10,19,05,13,5.90
2018,10,19,05,14,6.00
2018,10,19,05,15,6.00
2018,10,19,05,16,6.00
2018,10,19,05,17,6.00
2018,10,19,05,18,6.00
2018,10,19,05,19,6.00
2018,10,19,05,20,6.00
2018,10,19,05,21,5.90
2018,10,19,05,22,5.90
2018,10,19,05,23,5.90
2018,10,19,05,24,5.80
2018,10,19,05,25,5.80
2018,10,19,05,26,5.80
2018,10,19,05,27,5.80
2018,10,19,05,28,5.70
2018,10,19,05,29,5.70
2018,10,19,05,30,5.70
2018,10,19,05,31,5.70
2018,10,19,05,32,5.70
2018,10,19,05,33,5.70
2018,10,19,05,34,5.70
2018,10,19,05,35,5.70
2018,10,19,05,36,5.70
2018,10,19,05,37,5.70
2018,10,19,05,38,5.70
2018,10,19,05,39,5.60
2018,10,19,05,40,5.60
2018,10,19,05,41,5.60
2018,10,19,05,42,5.60
2018,10,19,05,43,5.60
2018,10,19,05,44,5.60
2018,10,19,05,45,5.50
2018,10,19,05,46,5.50
2018,10,19,05,47,5.50
2018,10,19,05,48,5.50
2018,10,19,05,49,5.40
2018,10,19,05,50,5.40
2018,10,19,05,51,5.40
2018,10,19,05,52,5.40
2018,10,19,05,53,5.40
2018,10,19,05,54,5.50
2018,10,19,05,55,5.50
2018,10,19,05,56,5.60
2018,10,19,05,57,5.70
2018,10,19,05,58,5.70
2018,10,19,05,59,5.80
2018,10,19,06,00,5.80
2018,10,19,06,01,5.80
2018,10,19,06,02,5.80
2018,10,19,06,03,5.80
2018,10,19,06,04,5.80
2018,10,19,06,05,5.70
2018,10,19,06,06,5.70
2018,10,19,06,07,5.70
2018,10,19,06,08,5.60
2018,10,19,06,09,5.60
2018,10,19,06,10,5.60
2018,10,19,06,11,5.60
2018,10,19,06,12,5.60
2018,10,19,06,13,5.60
2018,10,19,06,14,5.60
2018,10,19,06,15,5.60
2018,10,19,06,16,5.60
2018,10,19,06,17,5.60
2018,10,19,06,18,5.60
2018,10,19,06,19,5.60
2018,10,19,06,20,5.60
2018,10,19,06,21,5.60
2018,10,19,06,22,5.60
2018,10,19,06,23,5.60
2018,10,19,06,24,5.60
2018,10,19,06,25,5.60
2018,10,19,06,26,5.50
2018,10,19,06,27,5.50
2018,10,19,06,28,5.50
2018,10,19,06,29,5.40
2018,10,19,06,30,5.40
2018,10,19,06,31,5.40
2018,10,19,06,32,5.40
2018,10,19,06,33,5.40
2018,10,19,06,34,5.30
2018,10,19,06,35,5.30
2018,10,19,06,36,5.40
2018,10,19,06,37,5.50
2018,10,19,06,38,5.50
2018,10,19,06,39,5.50
2018,10,19,06,40,5.60
2018,10,19,06,41,5.60
2018,10,19,06,42,5.60
2018,10,19,06,43,5.70
2018,10,19,06,44,5.70
2018,10,19,06,45,5.70
2018,10,19,06,46,5.70
2018,10,19,06,47,5.70
2018,10,19,06,48,5.70
2018,10,19,06,49,5.70
2018,10,19,06,50,5.70
2018,10,19,06,51,5.70
2018,10,19,06,52,5.70
2018,10,19,06,53,5.70
2018,10,19,06,54,5.70
2018,10,19,06,55,5.80
2018,10,19,06,56,5.80
2018,10,19,06,57,5.80
2018,10,19,06,58,5.90
2018,10,19,06,59,5.90
2018,10,19,07,00,5.90
2018,10,19,07,01,5.90
2018,10,19,07,02,6.00
2018,10,19,07,03,5.90
2018,10,19,07,04,6.00
2018,10,19,07,05,6.00
2018,10,19,07,06,6.00
2018,10,19,07,07,6.00
2018,10,19,07,08,6.00
2018,10,19,07,09,6.10
2018,10,19,07,10,6.10
2018,10,19,07,11,6.10
2018,10,19,07,12,6.10
2018,10,19,07,13,6.10
2018,10,19,07,14,6.10
2018,10,19,07,15,6.10
2018,10,19,07,16,6.10
2018,10,19,07,17,6.20
2018,10,19,07,18,6.10
2018,10,19,07,19,6.10
2018,10,19,07,20,6.10
2018,10,19,07,21,6.10
2018,10,19,07,22,6.10
2018,10,19,07,23,6.10
2018,10,19,07,24,6.10
2018,10,19,07,25,6.10
2018,10,19,07,26,6.10
2018,10,19,07,27,6.10
2018,10,19,07,28,6.10
2018,10,19,07,29,6.10
2018,10,19,07,30,6.10
2018,10,19,07,31,6.10
2018,10,19,07,32,6.00
2018,10,19,07,33,6.00
2018,10,19,07,34,6.00
2018,10,19,07,35,6.00
2018,10,19,07,36,6.00
2018,10,19,07,37,5.90
2018,10,19,07,38,5.90
2018,10,19,07,39,5.80
2018,10,19,07,40,5.80
2018,10,19,07,41,5.80
2018,10,19,07,42,5.70
2018,10,19,07,43,5.60
2018,10,19,07,44,5.60
2018,10,19,07,45,5.60
2018,10,19,07,46,5.50
2018,10,19,07,47,5.50
2018,10,19,07,48,5.40
2018,10,19,07,49,5.40
2018,10,19,07,50,5.40
2018,10,19,07,51,5.40
2018,10,19,07,52,5.40
2018,10,19,07,53,5.40
2018,10,19,07,54,5.40
2018,10,19,07,55,5.40
2018,10,19,07,56,5.40
2018,10,19,07,57,5.40
2018,10,19,07,58,5.40
2018,10,19,07,59,5.40
2018,10,19,08,00,5.40
2018,10,19,08,01,5.40
2018,10,19,08,02,5.40
2018,10,19,08,03,5.50
2018,10,19,08,04,5.50
2018,10,19,08,05,5.50
2018,10,19,08,06,5.60
2018,10,19,08,07,5.60
2018,10,19,08,08,5.70
2018,10,19,08,09,5.70
2018,10,19,08,10,5.80
2018,10,19,08,11,5.80
2018,10,19,08,12,5.90
2018,10,19,08,13,5.90
2018,10,19,08,14,5.90
2018,10,19,08,15,6.00
2018,10,19,08,16,6.00
2018,10,19,08,17,6.10
2018,10,19,08,18,6.10
2018,10,19,08,19,6.10
2018,10,19,08,20,6.10
2018,10,19,08,21,6.10
2018,10,19,08,22,6.20
2018,10,19,08,23,6.20
2018,10,19,08,24,6.20
2018,10,19,08,25,6.20
2018,10,19,08,26,6.20
2018,10,19,08,27,6.20
2018,10,19,08,28,6.20
2018,10,19,08,29,6.20
2018,10,19,08,30,6.30
2018,10,19,08,31,6.30
2018,10,19,08,32,6.30
2018,10,19,08,33,6.30
2018,10,19,08,34,6.40
2018,10,19,08,35,6.40
2018,10,19,08,36,6.40
2018,10,19,08,37,6.40
2018,10,19,08,38,6.40
2018,10,19,08,39,6.40
2018,10,19,08,40,6.40
2018,10,19,08,41,6.40
2018,10,19,08,42,6.40
2018,10,19,08,43,6.40
2018,10,19,08,44,6.40
2018,10,19,08,45,6.40
2018,10,19,08,46,6.40
2018,10,19,08,47,6.40
2018,10,19,08,48,6.30
2018,10,19,08,49,6.30
2018,10,19,08,50,6.30
2018,10,19,08,51,6.30
2018,10,19,08,52,6.20
2018,10,19,08,53,6.20
2018,10,19,08,54,6.30
2018,10,19,08,55,6.30
2018,10,19,08,56,6.30
2018,10,19,08,57,6.30
2018,10,19,08,58,6.40
2018,10,19,08,59,6.40
2018,10,19,09,00,6.50
2018,10,19,09,01,6.60
2018,10,19,09,02,6.60
2018,10,19,09,03,6.70
2018,10,19,09,04,6.70
2018,10,19,09,05,6.80
2018,10,19,09,06,6.90
2018,10,19,09,07,7.00
2018,10,19,09,08,7.10
2018,10,19,09,09,7.10
2018,10,19,09,10,7.20
2018,10,19,09,11,7.30
2018,10,19,09,12,7.40
2018,10,19,09,13,7.50
2018,10,19,09,14,7.60
2018,10,19,09,15,7.60
2018,10,19,09,16,7.60
2018,10,19,09,17,7.70
2018,10,19,09,18,7.70
2018,10,19,09,19,7.70
2018,10,19,09,20,7.70
2018,10,19,09,21,7.70
2018,10,19,09,22,7.70
2018,10,19,09,23,7.70
2018,10,19,09,24,7.70
2018,10,19,09,25,7.70
2018,10,19,09,26,7.70
2018,10,19,09,27,7.70
2018,10,19,09,28,7.70
2018,10,19,09,29,7.70
2018,10,19,09,30,7.70
2018,10,19,09,31,7.80
2018,10,19,09,32,7.80
2018,10,19,09,33,7.80
2018,10,19,09,34,7.80
2018,10,19,09,35,7.90
2018,10,19,09,36,7.90
2018,10,19,09,37,8.00
2018,10,19,09,38,8.00
2018,10,19,09,39,8.10
2018,10,19,09,40,8.10
2018,10,19,09,41,8.20
2018,10,19,09,42,8.30
2018,10,19,09,43,8.30
2018,10,19,09,44,8.40
2018,10,19,09,45,8.50
2018,10,19,09,46,8.70
2018,10,19,09,47,8.80
2018,10,19,09,48,8.90
2018,10,19,09,49,9.00
2018,10,19,09,50,9.10
2018,10,19,09,51,9.20
2018,10,19,09,52,9.30
2018,10,19,09,53,9.40
2018,10,19,09,54,9.40
2018,10,19,09,55,9.50
2018,10,19,09,56,9.60
2018,10,19,09,57,9.70
2018,10,19,09,58,9.80
2018,10,19,09,59,9.90
2018,10,19,10,00,9.90
2018,10,19,10,01,10.00
2018,10,19,10,02,10.10
2018,10,19,10,03,10.10
2018,10,19,10,04,10.20
2018,10,19,10,05,10.20
2018,10,19,10,06,10.20
2018,10,19,10,07,10.20
2018,10,19,10,08,10.20
2018,10,19,10,09,10.30
2018,10,19,10,10,10.30
2018,10,19,10,11,10.30
2018,10,19,10,12,10.40
2018,10,19,10,13,10.40
2018,10,19,10,14,10.40
2018,10,19,10,15,10.50
2018,10,19,10,16,10.50
2018,10,19,10,17,10.50
2018,10,19,10,18,10.50
2018,10,19,10,19,10.60
2018,10,19,10,20,10.60
2018,10,19,10,21,10.70
2018,10,19,10,22,10.70
2018,10,19,10,23,10.80
2018,10,19,10,24,10.80
2018,10,19,10,25,10.90
2018,10,19,10,26,10.90
2018,10,19,10,27,11.00
2018,10,19,10,28,11.10
2018,10,19,10,29,11.10
2018,10,19,10,30,11.10
2018,10,19,10,31,11.20
2018,10,19,10,32,11.20
2018,10,19,10,33,11.20
2018,10,19,10,34,11.20
2018,10,19,10,35,11.20
2018,10,19,10,36,11.30
2018,10,19,10,37,11.30
2018,10,19,10,38,11.40
2018,10,19,10,39,11.40
2018,10,19,10,40,11.50
2018,10,19,10,41,11.50
2018,10,19,10,42,11.60
2018,10,19,10,43,11.60
2018,10,19,10,44,11.60
2018,10,19,10,45,11.70
2018,10,19,10,46,11.70
2018,10,19,10,47,11.80
2018,10,19,10,48,11.80
2018,10,19,10,49,11.90
2018,10,19,10,50,11.90
2018,10,19,10,51,11.90
2018,10,19,10,52,11.90
2018,10,19,10,53,11.90
2018,10,19,10,54,11.90
2018,10,19,10,55,12.00
2018,10,19,10,56,12.00
2018,10,19,10,57,12.00
2018,10,19,10,58,12.00
2018,10,19,10,59,12.00
2018,10,19,11,00,12.00
2018,10,19,11,01,12.00
2018,10,19,11,02,12.00
2018,10,19,11,03,12.10
2018,10,19,11,04,12.10
2018,10,19,11,05,12.10
2018,10,19,11,06,12.20
2018,10,19,11,07,12.20
2018,10,19,11,08,12.30
2018,10,19,11,09,12.30
2018,10,19,11,10,12.40
2018,10,19,11,11,12.50
2018,10,19,11,12,12.60
2018,10,19,11,13,12.70
2018,10,19,11,14,12.70
2018,10,19,11,15,12.80
2018,10,19,11,16,12.90
2018,10,19,11,17,12.90
2018,10,19,11,18,12.90
2018,10,19,11,19,13.00
2018,10,19,11,20,13.10
2018,10,19,11,21,13.10
2018,10,19,11,22,13.20
2018,10,19,11,23,13.30
2018,10,19,11,24,13.40
2018,10,19,11,25,13.50
2018,10,19,11,26,13.60
2018,10,19,11,27,13.70
2018,10,19,11,28,13.80
2018,10,19,11,29,13.80
2018,10,19,11,30,13.90
2018,10,19,11,31,14.00
2018,10,19,11,32,14.10
2018,10,19,11,33,14.10
2018,10,19,11,34,14.20
2018,10,19,11,35,14.20
2018,10,19,11,36,14.20
2018,10,19,11,37,14.30
2018,10,19,11,38,14.30
2018,10,19,11,39,14.40
2018,10,19,11,40,14.40
2018,10,19,11,41,14.40
2018,10,19,11,42,14.40
2018,10,19,11,43,14.50
2018,10,19,11,44,14.50
2018,10,19,11,45,14.50
2018,10,19,11,46,14.50
2018,10,19,11,47,14.60
2018,10,19,11,48,14.60
2018,10,19,11,49,14.60
2018,10,19,11,50,14.60
2018,10,19,11,51,14.60
2018,10,19,11,52,14.60
2018,10,19,11,53,14.60
2018,10,19,11,54,14.70
2018,10,19,11,55,14.70
2018,10,19,11,56,14.70
2018,10,19,11,57,14.70
2018,10,19,11,58,14.70
2018,10,19,11,59,14.70
2018,10,19,12,00,14.70
2018,10,19,12,01,14.80
2018,10,19,12,02,14.80
2018,10,19,12,03,14.80
2018,10,19,12,04,14.80
2018,10,19,12,05,14.80
2018,10,19,12,06,14.80
2018,10,19,12,07,14.80
2018,10,19,12,08,14.80
2018,10,19,12,09,14.80
2018,10,19,12,10,14.80
2018,10,19,12,11,14.80
2018,10,19,12,12,14.80
2018,10,19,12,13,14.80
2018,10,19,12,14,14.80
2018,10,19,12,15,14.90
2018,10,19,12,16,14.90
2018,10,19,12,17,14.90
2018,10,19,12,18,14.90
2018,10,19,12,19,14.90
2018,10,19,12,20,14.90
2018,10,19,12,21,14.90
2018,10,19,12,22,14.90
2018,10,19,12,23,14.90
2018,10,19,12,24,14.90
2018,10,19,12,25,14.90
2018,10,19,12,26,14.90
2018,10,19,12,27,15.00
2018,10,19,12,28,15.00
2018,10,19,12,29,15.10
2018,10,19,12,30,15.10
2018,10,19,12,31,15.10
2018,10,19,12,32,15.00
2018,10,19,12,33,15.00
2018,10,19,12,34,15.00
2018,10,19,12,35,15.00
2018,10,19,12,36,15.00
2018,10,19,12,37,15.00
2018,10,19,12,38,15.00
2018,10,19,12,39,15.00
2018,10,19,12,40,14.90
2018,10,19,12,41,14.90
2018,10,19,12,42,15.00
2018,10,19,12,43,15.00
2018,10,19,12,44,15.00
2018,10,19,12,45,15.00
2018,10,19,12,46,15.00
2018,10,19,12,47,15.00
2018,10,19,12,48,14.90
2018,10,19,12,49,14.90
2018,10,19,12,50,14.90
2018,10,19,12,51,14.90
2018,10,19,12,52,14.90
2018,10,19,12,53,14.90
2018,10,19,12,54,14.90
2018,10,19,12,55,14.90
2018,10,19,12,56,14.90
2018,10,19,12,57,14.90
2018,10,19,12,58,14.90
2018,10,19,12,59,14.90
2018,10,19,13,00,14.90
2018,10,19,13,01,15.00
2018,10,19,13,02,15.00
2018,10,19,13,03,15.00
2018,10,19,13,04,15.00
2018,10,19,13,05,14.90
2018,10,19,13,06,14.90
2018,10,19,13,07,14.90
2018,10,19,13,08,14.90
2018,10,19,13,09,14.90
2018,10,19,13,10,14.90
2018,10,19,13,11,14.90
2018,10,19,13,12,14.90
2018,10,19,13,13,15.00
2018,10,19,13,14,15.00
2018,10,19,13,15,15.10
2018,10,19,13,16,15.10
2018,10,19,13,17,15.10
2018,10,19,13,18,15.20
2018,10,19,13,19,15.20
2018,10,19,13,20,15.20
2018,10,19,13,21,15.20
2018,10,19,13,22,15.20
2018,10,19,13,23,15.20
2018,10,19,13,24,15.20
2018,10,19,13,25,15.30
2018,10,19,13,26,15.30
2018,10,19,13,27,15.30
2018,10,19,13,28,15.30
2018,10,19,13,29,15.30
2018,10,19,13,30,15.30
2018,10,19,13,31,15.30
2018,10,19,13,32,15.40
2018,10,19,13,33,15.40
2018,10,19,13,34,15.40
2018,10,19,13,35,15.50
2018,10,19,13,36,15.50
2018,10,19,13,37,15.60
2018,10,19,13,38,15.60
2018,10,19,13,39,15.70
2018,10,19,13,40,15.70
2018,10,19,13,41,15.70
2018,10,19,13,42,15.70
2018,10,19,13,43,15.60
2018,10,19,13,44,15.60
2018,10,19,13,45,15.60
2018,10,19,13,46,15.60
2018,10,19,13,47,15.60
2018,10,19,13,48,15.60
2018,10,19,13,49,15.60
2018,10,19,13,50,15.60
2018,10,19,13,51,15.60
2018,10,19,13,52,15.70
2018,10,19,13,53,15.70
2018,10,19,13,54,15.70
2018,10,19,13,55,15.70
2018,10,19,13,56,15.70
2018,10,19,13,57,15.70
2018,10,19,13,58,15.70
2018,10,19,13,59,15.70
2018,10,19,14,00,15.70
2018,10,19,14,01,15.70
2018,10,19,14,02,15.70
2018,10,19,14,03,15.70
2018,10,19,14,04,15.70
2018,10,19,14,05,15.70
2018,10,19,14,06,15.70
2018,10,19,14,07,15.70
2018,10,19,14,08,15.70
2018,10,19,14,09,15.70
2018,10,19,14,10,15.70
2018,10,19,14,11,15.70
2018,10,19,14,12,15.70
2018,10,19,14,13,15.70
2018,10,19,14,14,15.80
2018,10,19,14,15,15.80
2018,10,19,14,16,15.90
2018,10,19,14,17,15.90
2018,10,19,14,18,15.90
2018,10,19,14,19,15.90
2018,10,19,14,20,15.90
2018,10,19,14,21,15.90
2018,10,19,14,22,15.90
2018,10,19,14,23,15.90
2018,10,19,14,24,15.90
2018,10,19,14,25,16.00
2018,10,19,14,26,16.00
2018,10,19,14,27,16.00
2018,10,19,14,28,16.00
2018,10,19,14,29,16.00
2018,10,19,14,30,16.00
2018,10,19,14,31,16.10
2018,10,19,14,32,16.10
2018,10,19,14,33,16.10
2018,10,19,14,34,16.10
2018,10,19,14,35,16.10
2018,10,19,14,36,16.00
2018,10,19,14,37,16.00
2018,10,19,14,38,16.00
2018,10,19,14,39,15.90
2018,10,19,14,40,15.90
2018,10,19,14,41,15.90
2018,10,19,14,42,15.90
2018,10,19,14,43,15.90
2018,10,19,14,44,15.90
2018,10,19,14,45,15.90
2018,10,19,14,46,15.90
2018,10,19,14,47,15.90
2018,10,19,14,48,15.90
2018,10,19,14,49,16.00
2018,10,19,14,50,16.00
2018,10,19,14,51,16.10
2018,10,19,14,52,16.10
2018,10,19,14,53,16.10
2018,10,19,14,54,16.10
2018,10,19,14,55,16.10
2018,10,19,14,56,16.10
2018,10,19,14,57,16.10
2018,10,19,14,58,16.10
2018,10,19,14,59,16.10
2018,10,19,15,00,16.10
2018,10,19,15,01,16.10
2018,10,19,15,02,16.10
2018,10,19,15,03,16.10
2018,10,19,15,04,16.10
2018,10,19,15,05,16.10
2018,10,19,15,06,16.10
2018,10,19,15,07,16.10
2018,10,19,15,08,16.10
2018,10,19,15,09,16.10
2018,10,19,15,10,16.10
2018,10,19,15,11,16.20
2018,10,19,15,12,16.20
2018,10,19,15,13,16.20
2018,10,19,15,14,16.20
2018,10,19,15,15,16.20
2018,10,19,15,16,16.20
2018,10,19,15,17,16.20
2018,10,19,15,18,16.20
2018,10,19,15,19,16.30
2018,10,19,15,20,16.30
2018,10,19,15,21,16.30
2018,10,19,15,22,16.30
2018,10,19,15,23,16.30
2018,10,19,15,24,16.40
2018,10,19,15,25,16.40
2018,10,19,15,26,16.40
2018,10,19,15,27,16.40
2018,10,19,15,28,16.40
2018,10,19,15,29,16.40
2018,10,19,15,30,16.40
2018,10,19,15,31,16.50
2018,10,19,15,32,16.50
2018,10,19,15,33,16.60
2018,10,19,15,34,16.60
2018,10,19,15,35,16.60
2018,10,19,15,36,16.60
2018,10,19,15,37,16.70
2018,10,19,15,38,16.70
2018,10,19,15,39,16.70
2018,10,19,15,40,16.70
2018,10,19,15,41,16.70
2018,10,19,15,42,16.70
2018,10,19,15,43,16.70
2018,10,19,15,44,16.70
2018,10,19,15,45,16.70
2018,10,19,15,46,16.70
2018,10,19,15,47,16.70
2018,10,19,15,48,16.70
2018,10,19,15,49,16.70
2018,10,19,15,50,16.70
2018,10,19,15,51,16.60
2018,10,19,15,52,16.60
2018,10,19,15,53,16.60
2018,10,19,15,54,16.50
2018,10,19,15,55,16.50
2018,10,19,15,56,16.50
2018,10,19,15,57,16.40
2018,10,19,15,58,16.50
2018,10,19,15,59,16.50
2018,10,19,16,00,16.50
2018,10,19,16,01,16.50
2018,10,19,16,02,16.50
2018,10,19,16,03,16.60
2018,10,19,16,04,16.60
2018,10,19,16,05,16.50
2018,10,19,16,06,16.60
2018,10,19,16,07,16.60
2018,10,19,16,08,16.60
2018,10,19,16,09,16.60
2018,10,19,16,10,16.60
2018,10,19,16,11,16.50
2018,10,19,16,12,16.50
2018,10,19,16,13,16.50
2018,10,19,16,14,16.40
2018,10,19,16,15,16.40
2018,10,19,16,16,16.40
2018,10,19,16,17,16.40
2018,10,19,16,18,16.40
2018,10,19,16,19,16.40
2018,10,19,16,20,16.40
2018,10,19,16,21,16.40
2018,10,19,16,22,16.40
2018,10,19,16,23,16.40
2018,10,19,16,24,16.40
2018,10,19,16,25,16.40
2018,10,19,16,26,16.40
2018,10,19,16,27,16.40
2018,10,19,16,28,16.40
2018,10,19,16,29,16.40
2018,10,19,16,30,16.40
2018,10,19,16,31,16.30
2018,10,19,16,32,16.30
2018,10,19,16,33,16.30
2018,10,19,16,34,16.30
2018,10,19,16,35,16.30
2018,10,19,16,36,16.30
2018,10,19,16,37,16.30
2018,10,19,16,38,16.30
2018,10,19,16,39,16.30
2018,10,19,16,40,16.30
2018,10,19,16,41,16.30
2018,10,19,16,42,16.30
2018,10,19,16,43,16.30
2018,10,19,16,44,16.30
2018,10,19,16,45,16.30
2018,10,19,16,46,16.30
2018,10,19,16,47,16.30
2018,10,19,16,48,16.30
2018,10,19,16,49,16.30
2018,10,19,16,50,16.30
2018,10,19,16,51,16.30
2018,10,19,16,52,16.30
2018,10,19,16,53,16.30
2018,10,19,16,54,16.30
2018,10,19,16,55,16.30
2018,10,19,16,56,16.40
2018,10,19,16,57,16.40
2018,10,19,16,58,16.40
2018,10,19,16,59,16.40
2018,10,19,17,00,16.40
2018,10,19,17,01,16.50
2018,10,19,17,02,16.50
2018,10,19,17,03,16.50
2018,10,19,17,04,16.50
2018,10,19,17,05,16.50
2018,10,19,17,06,16.50
2018,10,19,17,07,16.50
2018,10,19,17,08,16.50
2018,10,19,17,09,16.50
2018,10,19,17,10,16.50
2018,10,19,17,11,16.50
2018,10,19,17,12,16.50
2018,10,19,17,13,16.50
2018,10,19,17,14,16.40
2018,10,19,17,15,16.40
2018,10,19,17,16,16.40
2018,10,19,17,17,16.30
2018,10,19,17,18,16.30
2018,10,19,17,19,16.20
2018,10,19,17,20,16.10
2018,10,19,17,21,16.00
2018,10,19,17,22,15.90
2018,10,19,17,23,15.80
2018,10,19,17,24,15.70
2018,10,19,17,25,15.60
2018,10,19,17,26,15.50
2018,10,19,17,27,15.40
2018,10,19,17,28,15.30
2018,10,19,17,29,15.20
2018,10,19,17,30,15.00
2018,10,19,17,31,14.90
2018,10,19,17,32,14.80
2018,10,19,17,33,14.70
2018,10,19,17,34,14.60
2018,10,19,17,35,14.50
2018,10,19,17,36,14.30
2018,10,19,17,37,14.20
2018,10,19,17,38,14.10
2018,10,19,17,39,14.00
2018,10,19,17,40,13.90
2018,10,19,17,41,13.80
2018,10,19,17,42,13.80
2018,10,19,17,43,13.70
2018,10,19,17,44,13.60
2018,10,19,17,45,13.50